DW2070 Weather Reports


Display with metric or nautical units.
time (UTC)temp
F
wind
direction
speed
MPH
gust
MPH
rain 1hr
in
rain 24hr
in
rain mn
in
humidity
%
barometer
mb
20260905022004 73 273 3.0 9.0 0.00 0.00 0.00 72 1013.0
20260905021004 73 270 3.0 9.0 0.00 0.00 0.00 71 1012.9
20260905020004 74 298 2.0 8.0 0.00 0.00 0.00 70 1013.0
20260905015004 75 297 3.0 9.0 0.00 0.00 0.00 68 1013.0
20260905013004 77 280 3.0 9.0 0.00 0.00 0.00 63 1013.0
20260905012004 78 268 4.0 9.0 0.00 0.00 0.00 63 1013.1
20260905011004 78 266 4.0 9.0 0.00 0.00 0.00 61 1013.1
20260905010004 79 249 4.0 10.0 0.00 0.00 0.00 58 1013.1
20260905005004 79 277 4.0 10.0 0.00 0.00 0.00 58 1013.0
20260905004025 80 259 4.0 12.0 0.00 0.00 0.00 59 1013.0
20260905003004 79 245 5.0 11.0 0.00 0.00 0.00 60 1013.0
20260905002004 79 251 5.0 11.0 0.00 0.00 0.00 59 1013.0
20260905001025 79 249 5.0 12.0 0.00 0.00 0.00 60 1013.0
20260905000004 79 229 4.0 11.0 0.00 0.00 0.00 60 1012.9
20260904233004 79 229 5.0 12.0 0.00 0.00 0.00 60 1013.1
20260904232004 80 236 5.0 12.0 0.00 0.00 0.00 60 1013.1
20260904231025 80 238 6.0 13.0 0.00 0.00 0.00 60 1013.1
20260904230004 80 249 5.0 12.0 0.00 0.00 0.00 60 1013.1
20260904225004 80 247 7.0 14.0 0.00 0.00 0.00 61 1013.2
20260904224004 80 239 6.0 14.0 0.00 0.00 0.00 60 1013.3
20260904221025 80 252 7.0 16.0 0.00 0.00 0.00 60 1013.3
20260904220004 80 246 7.0 14.0 0.00 0.00 0.00 61 1013.3
20260904213025 80 247 7.0 16.0 0.00 0.00 0.00 60 1013.4
20260904212025 80 246 6.0 14.0 0.00 0.00 0.00 61 1013.4
20260904211004 80 252 6.0 13.0 0.00 0.00 0.00 61 1013.2
20260904210004 80 249 7.0 12.0 0.00 0.00 0.00 61 1013.3
20260904205004 79 253 7.0 15.0 0.00 0.00 0.00 62 1013.4
20260904204004 80 243 7.0 14.0 0.00 0.00 0.00 62 1013.5
20260904203004 80 252 7.0 16.0 0.00 0.00 0.00 61 1013.6
20260904202025 80 256 6.0 14.0 0.00 0.00 0.00 61 1013.6
20260904201004 81 248 5.0 11.0 0.00 0.00 0.00 59 1013.5
20260904195004 81 245 5.0 14.0 0.00 0.00 0.00 58 1013.5
20260904194004 81 247 4.0 12.0 0.00 0.00 0.00 58 1013.5
20260904193004 82 242 3.0 9.0 0.00 0.00 0.00 57 1013.6
20260904192004 82 260 3.0 9.0 0.00 0.00 0.00 56 1013.6
20260904191025 81 275 3.0 10.0 0.00 0.00 0.00 58 1013.6
20260904190004 81 229 4.0 8.0 0.00 0.00 0.00 55 1013.8
20260904185004 80 238 3.0 9.0 0.00 0.00 0.00 55 1013.9
20260904184004 80 223 2.0 7.0 0.00 0.00 0.00 56 1013.9
20260904183004 80 237 3.0 9.0 0.00 0.00 0.00 54 1014.0
20260904182004 80 218 3.0 9.0 0.00 0.00 0.00 54 1014.2
20260904181004 80 271 2.0 7.0 0.00 0.00 0.00 52 1014.2
20260904180004 81 336 2.0 5.0 0.00 0.00 0.00 51 1014.3
20260904175004 80 240 1.0 5.0 0.00 0.00 0.00 51 1014.4
20260904174004 79 243 1.0 3.0 0.00 0.00 0.00 54 1014.3
20260904173004 79 250 2.0 6.0 0.00 0.00 0.00 55 1014.4
20260904172004 79 243 1.0 5.0 0.00 0.00 0.00 55 1014.3
20260904171004 78 189 2.0 5.0 0.00 0.00 0.00 56 1014.2
20260904170025 77 193 2.0 5.0 0.00 0.00 0.00 58 1014.2
20260904165003 77 180 1.0 5.0 0.00 0.00 0.00 59 1014.2
20260904164004 77 89 1.0 3.0 0.00 0.00 0.00 59 1014.1
20260904163024 77 76 1.0 3.0 0.00 0.00 0.00 60 1014.1
20260904162003 76 69 1.0 5.0 0.00 0.00 0.00 62 1013.9
20260904161003 75 83 1.0 4.0 0.00 0.00 0.00 66 1013.8
20260904160004 72 89 2.0 6.0 0.00 0.00 0.00 71 1013.8
20260904155003 69 70 2.0 4.0 0.00 0.00 0.00 79 1013.8
20260904154004 66 59 3.0 5.0 0.00 0.00 0.00 83 1013.8
20260904153004 65 62 3.0 6.0 0.00 0.00 0.00 83 1013.8
20260904152004 64 57 3.0 6.0 0.00 0.00 0.00 84 1013.6
20260904151003 63 63 3.0 6.0 0.00 0.00 0.00 85 1013.6
20260904150004 62 85 2.0 6.0 0.00 0.00 0.00 85 1013.5
20260904145004 62 69 3.0 4.0 0.00 0.00 0.00 86 1013.5
20260904144024 61 65 4.0 6.0 0.00 0.00 0.00 86 1013.5
20260904143003 61 64 3.0 7.0 0.00 0.00 0.00 86 1013.4
20260904141003 60 70 3.0 6.0 0.00 0.00 0.00 85 1013.3
20260904140004 59 65 4.0 6.0 0.00 0.00 0.00 85 1013.1
20260904135003 59 67 4.0 9.0 0.00 0.00 0.00 85 1013.1
20260904134004 59 63 3.0 8.0 0.00 0.00 0.00 85 1013.0
20260904133004 59 66 3.0 5.0 0.00 0.00 0.00 85 1013.0
20260904132003 59 66 3.0 6.0 0.00 0.00 0.00 85 1012.9
20260904131003 59 68 2.0 5.0 0.00 0.00 0.00 85 1012.8
20260904130004 59 69 2.0 5.0 0.00 0.00 0.00 85 1012.8
20260904125003 59 71 3.0 5.0 0.00 0.00 0.00 85 1012.7
20260904124004 59 73 2.0 5.0 0.00 0.00 0.00 85 1012.8
20260904123003 59 78 2.0 5.0 0.00 0.00 0.00 86 1012.7
20260904122003 59 68 3.0 5.0 0.00 0.00 0.00 85 1012.5
20260904121004 59 66 3.0 7.0 0.00 0.00 0.00 85 1012.6
20260904120024 59 66 3.0 5.0 0.00 0.00 0.00 85 1012.6
20260904115003 60 62 3.0 5.0 0.00 0.00 0.00 86 1012.5
20260904114003 60 68 2.0 6.0 0.00 0.00 0.00 86 1012.5
20260904113003 60 70 3.0 6.0 0.00 0.00 0.00 86 1012.5
20260904112003 60 75 2.0 5.0 0.00 0.00 0.00 86 1012.5
20260904111003 60 85 2.0 5.0 0.00 0.00 0.00 86 1012.5
20260904110003 60 90 1.0 4.0 0.00 0.00 0.00 86 1012.5
20260904105003 60 109 1.0 4.0 0.00 0.00 0.00 86 1012.5
20260904104003 60 114 1.0 3.0 0.00 0.00 0.00 86 1012.4
20260904103003 60 114 1.0 3.0 0.00 0.00 0.00 85 1012.5
20260904102003 61 120 1.0 5.0 0.00 0.00 0.00 85 1012.5
20260904101004 61 0 0.0 1.0 0.00 0.00 0.00 85 1012.4
20260904100003 61 187 1.0 4.0 0.00 0.00 0.00 85 1012.4
20260904095024 61 187 0.0 4.0 0.00 0.00 0.00 85 1012.3
20260904094003 61 0 0.0 0.0 0.00 0.00 0.00 85 1012.4
20260904093004 62 0 0.0 0.0 0.00 0.00 0.00 84 1012.4
20260904092003 62 0 1.0 1.0 0.00 0.00 0.00 85 1012.4
20260904090004 62 0 0.0 0.0 0.00 0.00 0.00 85 1012.4
20260904085003 62 0 0.0 0.0 0.00 0.00 0.00 84 1012.5
20260904084003 63 0 0.0 0.0 0.00 0.00 0.00 84 1012.5
20260904083003 63 0 0.0 0.0 0.00 0.00 0.00 84 1012.7
20260904082003 63 0 0.0 3.0 0.00 0.00 0.00 84 1012.7
20260904081003 63 0 0.0 0.0 0.00 0.00 0.00 84 1012.9
20260904080024 63 0 0.0 0.0 0.00 0.00 0.00 83 1012.9
20260904075003 64 0 0.0 0.0 0.00 0.00 0.00 83 1012.9
20260904074024 64 0 0.0 0.0 0.00 0.00 0.00 83 1012.8
20260904073003 64 0 0.0 0.0 0.00 0.00 0.00 82 1012.7
20260904072004 65 0 0.0 0.0 0.00 0.00 0.00 82 1012.8
20260904071004 65 0 0.0 0.0 0.00 0.00 0.00 82 1012.7
20260904070005 65 0 0.0 0.0 0.00 0.00 0.00 83 1012.7
20260904065005 65 204 0.0 2.0 0.00 0.00 0.00 83 1012.8
20260904064005 66 204 1.0 3.0 0.00 0.00 0.00 83 1012.5
20260904063005 66 205 1.0 4.0 0.00 0.00 0.00 83 1012.5
20260904062004 67 0 0.0 0.0 0.00 0.00 0.00 83 1012.4
20260904061005 67 0 0.0 0.0 0.00 0.00 0.00 83 1012.5
20260904060025 67 0 0.0 0.0 0.00 0.00 0.00 83 1012.5
20260904055004 67 0 0.0 0.0 0.00 0.00 0.00 83 1012.6
20260904054005 67 0 0.0 0.0 0.00 0.00 0.00 83 1012.5
20260904053005 67 211 0.0 1.0 0.00 0.00 0.00 83 1012.6
20260904052004 67 211 1.0 3.0 0.00 0.00 0.00 83 1012.7
20260904051004 67 211 1.0 4.0 0.00 0.00 0.00 83 1012.7
20260904045005 67 0 0.0 3.0 0.00 0.00 0.00 83 1012.8
20260904044005 67 212 1.0 1.0 0.00 0.00 0.00 83 1012.9
20260904043004 67 213 0.0 4.0 0.00 0.00 0.00 82 1012.7
20260904042004 68 214 1.0 2.0 0.00 0.00 0.00 82 1012.7
20260904041005 68 214 1.0 3.0 0.00 0.00 0.00 82 1012.6
20260904040004 68 233 2.0 5.0 0.00 0.00 0.00 81 1012.6
20260904035004 68 230 1.0 4.0 0.00 0.00 0.00 80 1012.5
20260904034025 69 235 2.0 4.0 0.00 0.00 0.00 79 1012.5
20260904033004 69 239 3.0 5.0 0.00 0.00 0.00 78 1012.5
20260904032004 69 239 3.0 7.0 0.00 0.00 0.00 77 1012.4
20260904031004 70 239 2.0 5.0 0.00 0.00 0.00 75 1012.2
20260904030004 70 242 3.0 4.0 0.00 0.00 0.00 73 1012.1
20260904025004 70 246 3.0 7.0 0.00 0.00 0.00 71 1012.1
20260904024004 71 255 3.0 8.0 0.00 0.00 0.00 69 1012.1
20260904023004 71 246 3.0 6.0 0.00 0.00 0.00 68 1012.0